Wilmington, OH

10:24 PM EDT on October 19, 2017 (GMT -0400)
Airborne

Weather History for KILN - February, 2013

Change the Weather History Date:

Friday, February 22, 2013

  Actual Average (KFFO) Record (KFFO)
Temperature  
Mean Temperature 34 °F -  
Max Temperature 42 °F 41 °F 61 °F (2017)
Min Temperature 26 °F 24 °F 6 °F (2015)
Degree Days  
Heating Degree Days 31    
Moisture  
Dew Point 32 °F    
Average Humidity 91    
Maximum Humidity 100    
Minimum Humidity 80    
Precipitation  
Precipitation 0.12 in - - ()
Sea Level Pressure  
Sea Level Pressure 29.98 in    
Wind  
Wind Speed 12 mph (SSE)    
Max Wind Speed 21 mph    
Max Gust Speed 29 mph    
Visibility 6 miles    
Events Rain    
Averages and records for this station are not official NWS values.
T = Trace of Precipitation, MM = Missing Value Source: NWS Daily Summary

Daily Weather History Graph

Daily Weather History Graph

Search for Another Location

Airport or City:

Trip Planner

Search our weather history database for the weather conditions in past years. The results will help you decide how hot, cold, wet, or windy it might be!

Date:

Astronomy

Feb. 22, 2013 Rise Set
Actual Time 7:17 AM EST 6:20 PM EST
Civil Twilight 6:50 AM EST 6:47 PM EST
Nautical Twilight 6:19 AM EST 7:18 PM EST
Astronomical Twilight 5:48 AM EST 7:49 PM EST
Moon 3:31 PM EST (2/22) 5:01 AM EST (2/22)
Length of Visible Light 11h 56m
Length of Day
11h 02m
Waxing Gibbous, 90% of the Moon is Illuminated
Feb 22
Waxing Gibbous
Feb 25
Full
Mar 4
Last Quarter
Mar 11
New
Mar 19
First Quarter

Hourly Weather History & Observations

Time (EST) Temp. Windchill Dew Point Humidity Pressure Visibility Wind Dir Wind Speed Gust Speed Precip Events Conditions
12:31 AM 26.6 °F 14.3 °F 21.2 °F 80% 30.03 in 6.0 mi East 16.1 mph 24.2 mph 0.01 in Rain Light Freezing Rain
12:52 AM 28.4 °F 17.0 °F 23.0 °F 80% 30.02 in 7.0 mi East 15.0 mph 24.2 mph 0.05 in Rain Light Freezing Rain
12:54 AM 28.0 °F 18.1 °F 23.0 °F 81% 30.11 in 8.0 mi East 11.5 mph 24.2 mph 0.05 in Rain Light Freezing Rain
1:54 AM 28.0 °F 18.1 °F 24.1 °F 85% 30.14 in 10.0 mi East 11.5 mph 18.4 mph 0.04 in Rain Light Freezing Rain
2:05 AM 28.4 °F 19.1 °F 24.8 °F 86% 30.04 in 10.0 mi East 10.4 mph 18.4 mph 0.00 in   Overcast
2:54 AM 27.0 °F 16.7 °F 24.1 °F 89% 30.10 in 10.0 mi East 11.5 mph 18.4 mph 0.00 in   Overcast
3:43 AM 28.4 °F 16.6 °F 24.8 °F 86% 29.94 in 10.0 mi ESE 16.1 mph 24.2 mph 0.00 in   Overcast
3:54 AM 28.0 °F 17.0 °F 25.0 °F 88% 30.03 in 10.0 mi ESE 13.8 mph 24.2 mph 0.00 in   Overcast
4:49 AM 28.4 °F 18.5 °F 26.6 °F 93% 29.91 in 5.0 mi ESE 11.5 mph 21.9 mph 0.00 in   Overcast
4:54 AM 28.0 °F 17.0 °F 26.1 °F 92% 30.00 in 3.0 mi ESE 13.8 mph 19.6 mph 0.00 in Rain Light Freezing Rain
5:07 AM 28.4 °F 18.0 °F 26.6 °F 93% 29.91 in 3.0 mi ESE 12.7 mph 19.6 mph 0.01 in Rain Light Freezing Rain
5:15 AM 28.4 °F 17.5 °F 26.6 °F 93% 29.91 in 4.0 mi ESE 13.8 mph - 0.02 in Rain Light Freezing Rain
5:54 AM 30.0 °F 19.1 °F 28.0 °F 92% 29.99 in 2.5 mi ESE 15.0 mph - 0.02 in Rain Light Freezing Rain
6:14 AM 30.2 °F 19.8 °F 28.4 °F 93% 29.89 in 3.0 mi ESE 13.8 mph 20.7 mph 0.01 in Rain Light Freezing Rain
6:25 AM 30.2 °F 19.8 °F 28.4 °F 93% 29.89 in 2.5 mi ESE 13.8 mph - 0.01 in Rain Light Freezing Rain
6:54 AM 30.9 °F 21.2 °F 30.0 °F 96% 29.97 in 2.0 mi SE 12.7 mph - 0.01 in Rain Light Freezing Rain
6:59 AM 30.2 °F 20.8 °F 30.2 °F 100% 29.89 in 2.0 mi SE 11.5 mph - 0.00 in   Overcast
7:16 AM 30.2 °F 20.8 °F 30.2 °F 100% 29.89 in 3.0 mi SE 11.5 mph - 0.00 in   Overcast
7:54 AM 32.0 °F 25.6 °F 32.0 °F 100% 29.99 in 3.0 mi SSE 6.9 mph - 0.00 in   Overcast
8:01 AM 32.0 °F 24.2 °F 32.0 °F 100% 29.90 in 1.8 mi ESE 9.2 mph - N/A   Overcast
8:41 AM 33.8 °F 27.0 °F 33.8 °F 100% 29.91 in 2.0 mi SSE 8.1 mph - N/A   Overcast
8:54 AM 33.1 °F 26.1 °F 33.1 °F 100% 29.99 in 2.0 mi SSE 8.1 mph - 0.00 in Rain Light Rain
9:40 AM 33.8 °F 26.4 °F 33.8 °F 100% 29.90 in 3.0 mi South 9.2 mph - 0.00 in   Overcast
9:54 AM 34.0 °F 27.2 °F 34.0 °F 100% 29.98 in 4.0 mi South 8.1 mph - 0.00 in   Overcast
10:54 AM 36.0 °F 28.5 °F 35.1 °F 97% 29.98 in 4.0 mi South 10.4 mph - N/A   Overcast
11:54 AM 37.9 °F 31.5 °F 37.0 °F 97% 29.98 in 4.0 mi SSW 9.2 mph - N/A   Overcast
12:54 PM 39.0 °F 29.9 °F 37.9 °F 96% 29.99 in 5.0 mi WSW 17.3 mph 20.7 mph N/A   Overcast
1:09 PM 39.2 °F 29.3 °F 37.4 °F 93% 29.92 in 7.0 mi WSW 20.7 mph 26.5 mph N/A   Overcast
1:52 PM 41.0 °F 31.9 °F 37.4 °F 87% 29.93 in 10.0 mi West 19.6 mph 28.8 mph N/A   Overcast
1:54 PM 41.0 °F 32.5 °F 37.9 °F 89% 29.99 in 10.0 mi West 17.3 mph 28.8 mph N/A   Overcast
2:13 PM 41.0 °F 32.5 °F 37.4 °F 87% 29.92 in 10.0 mi West 17.3 mph - N/A   Overcast
2:38 PM 42.8 °F 34.3 °F 37.4 °F 81% 29.92 in 10.0 mi West 19.6 mph 27.6 mph N/A   Mostly Cloudy
2:54 PM 42.1 °F 33.9 °F 37.0 °F 82% 30.00 in 10.0 mi West 17.3 mph 24.2 mph N/A   Overcast
3:54 PM 42.1 °F 35.7 °F 37.0 °F 82% 30.00 in 10.0 mi WSW 11.5 mph - N/A   Overcast
4:04 PM 42.8 °F 37.0 °F 37.4 °F 81% 29.93 in 10.0 mi WSW 10.4 mph - N/A   Overcast
4:54 PM 42.1 °F 36.6 °F 37.0 °F 82% 29.99 in 10.0 mi West 9.2 mph - N/A   Mostly Cloudy
5:15 PM 41.0 °F 36.4 °F 37.4 °F 87% 29.92 in 10.0 mi West 6.9 mph - N/A   Overcast
5:54 PM 41.0 °F 37.1 °F 36.0 °F 82% 30.00 in 10.0 mi West 5.8 mph - N/A   Overcast
6:54 PM 39.9 °F 35.8 °F 36.0 °F 86% 30.02 in 10.0 mi NW 5.8 mph - N/A   Overcast
7:54 PM 37.9 °F 35.5 °F 35.1 °F 89% 30.03 in 10.0 mi NNW 3.5 mph - N/A   Overcast
8:24 PM 35.6 °F 31.7 °F 33.8 °F 93% 29.96 in 8.0 mi North 4.6 mph - N/A   Scattered Clouds
8:54 PM 36.0 °F - 34.0 °F 93% 30.03 in 7.0 mi Calm Calm - N/A   Scattered Clouds
9:06 PM 35.6 °F - 33.8 °F 93% 29.96 in 7.0 mi Calm Calm - N/A   Mostly Cloudy
9:54 PM 35.1 °F - 33.1 °F 92% 30.04 in 6.0 mi Calm Calm - N/A   Overcast
10:54 PM 34.0 °F - 33.1 °F 96% 30.05 in 4.0 mi Calm Calm - N/A   Overcast
11:01 PM 33.8 °F - 33.8 °F 100% 29.98 in 4.0 mi Calm Calm - N/A   Overcast
11:50 PM 33.8 °F - 33.8 °F 100% 29.97 in 3.0 mi Calm Calm - N/A   Overcast
11:54 PM 34.0 °F - 33.1 °F 96% 30.04 in 3.0 mi Calm Calm - N/A   Overcast